Location: Sandy Point Observatory
(37.2521°N, 76.9605°W)
Time: 18:22:19
(UTC-04:00)

ISS - Visible Passes

Search period start: 23 March 2019 00:00
Search period end: 02 April 2019 00:00
Orbit: 408 x 411 km, 51.6° (Epoch: 23 March)

Date Brightness Start Highest point End Pass type
(mag) Time Alt. Az. Time Alt. Az. Time Alt. Az.
23 Mar -3.5 19:55:40 10° SW 19:58:57 71° NW 20:02:15 10° NE visible
23 Mar -0.8 21:34:25 10° NW 21:36:03 13° NNW 21:36:28 13° NNW visible
24 Mar -1.2 20:42:46 10° WNW 20:45:10 18° NNW 20:47:34 10° NNE visible
25 Mar -1.8 19:51:26 10° W 19:54:20 28° NNW 19:57:16 10° NNE visible
26 Mar -0.8 20:39:48 10° NW 20:40:50 11° NNW 20:41:50 10° N visible
01 Apr -0.5 22:03:09 10° NNW 22:03:22 11° NNW 22:03:22 11° NNW visible
